STARLINK-1802, 46702

Orbit data source: Space-Track

STARLINK-1802, 46702 is a payload satellite owned by SpaceX/Seattle (US) in LEO that was launched on Sun, 18 Oct 2020 UTC via an FALCON 9 launch vehicle from the Air Force Eastern Test Range (AFETR). Payload-class satellites include a variety of spacecraft equipped with specific instruments for various scientific and technological missions. These include communications satellites like Starlink; space stations such as the ISS; scientific satellites like the Hubble; Earth observation satellites from companies like Planet Labs, Umbra, and HawkEye 360; GPS; miniature CubeSats for education and research; and military/defense satellites.

Loading next visibility...
Identifier
46702, 2020-073AJ
Orbit
LEO
Last TLE update
9 hours ago
Origin
Manufacturer
SpaceX/Seattle
Mission
Operational Commercial Communications
Bus & Motor
STARLINK, Unknown motor
Mass
260 kg wet, ~248 kg dry
Launch date (UTC)
2020-10-18 (5 years ago)
Launch vehicle
FALCON 9
Launch site
Air Force Eastern Test Range (AFETR)
Object type
Payload
Rocket body
Debris
Shape & HBR
Box + 1 Pan, 8.86 m
Radar Cross Section
13.562 m², Large (>1 m²)

Expand to show TLE details & history

TLE from 9 hours ago
0 STARLINK-1802
1 46702U 20073AJ  25183.91114654 -.00001024  00000-0 -49897-4 0  9991
2 46702  53.0534 262.9170 0001207  78.4831 281.6293 15.06397820259760
Epoch: 2025-07-02T21:52Z
TLE epoch observation values (Epoch: 2025-07-02T21:52:03.061Z)
Latitude
-0.00004°
Longitude
13.71876°
Altitude
547.929 km
Speed
7.589 km/s
True Right ascension
17h 31m 40s
True Declination
0° 00' 00"
Sunlit
Object was in full shadow at epoch
Visualization orbit readout
Latitude
-47.22446°
Longitude
-114.03088°
Altitude
564.167 km
Speed
7.579 km/s
Apparent Right ascension
07h 49m 26s
Apparent Declination
-44° 53' 43"
Sunlit
Object is in daylight
Visualization observer readout
Local Sidereal Time
18:40:50
Azimuth
242.874° WSW
Elevation
-76.427°
Doppler factor
1
Orbital elements
Apogee altitude
548.325 km
Perigee altitude
546.653 km
Semi-major axis
6,925.626 km
Eccentricity
0.00012
Inclination
53.0534°
RAAN
262.917°
Arg. of periapsis
78.4831°
True anomaly
Unknown
Mean anomaly
281.6293°
Eccentric anomaly
Unknown
Mean motion
3.76578 °/min
Orbital period
95.6 mins
BSTAR
-0.000049897
Loading maneuver chart data...
Loading SW <> Apogee altitude chart data...
Loading historical data...
Loading historical data...
Loading historical data...
Loading historical data...
Loading historical data...
Loading historical data...
Loading historical data...

STARLINK-1802 Visibility forecast

Observer location: undefined°, undefined°

Span
Click to sort rows by Start time (UTC) header in descending order
Start Az.
Max El. time (UTC)
Max El. Az.
Max El.
End time (UTC)
End Az.
6 mins2025-07-03 07:35:05.134Z201.032° SSW2025-07-03 07:38:05.134Z133.844° SE34.619°2025-07-03 07:41:05.134Z66.701° ENE
6 mins2025-07-03 09:15:05.134Z276.395° WNW2025-07-03 09:18:05.134Z343.03° N26.953°2025-07-03 09:21:05.134Z33.136° NE
6 mins2025-07-03 14:17:05.134Z328.687° NNW2025-07-03 14:19:05.134Z13.644° NNE35.046°2025-07-03 14:23:05.134Z106.988° ESE
5 mins2025-07-03 15:57:05.134Z267.54° W2025-07-03 15:59:05.134Z224.003° SW22.882°2025-07-03 16:02:05.134Z175.468° S
|